Location: Kershaw
(34.5481°N, 80.5823°W)
Time: 03:04:26
(UTC+00:00)

Explorer 7 - Pass Details

Date: 11 October 2022
Orbit: 481 x 665 km, 50.3° (Epoch: 30 November)

Event Time Altitude Azimuth Distance (km) Brightness Sun altitude
Rises 13:12:43 0° 256° (WSW) 2,937 10.1 20.4°
Reaches altitude 10° 13:15:13 10° 267° (W) 2,050 9.3 20.9°
Maximum altitude 13:19:28 32° 330° (NNW) 1,143 8.2 21.7°
Drops below altitude 10° 13:23:48 10° 33° (NNE) 2,089 9.9 22.5°
Sets 13:26:23 0° 44° (NE) 3,002 10.8 23.0°
